COSMOS 2251 DEB, 35650

Orbit data source: Space-Track

COSMOS 2251 DEB, 35650 is space debris in LEO originally from a launch on Wed, 16 Jun 1993 UTC launched from the Plesetsk Missile And Space Complex (PKMTR). The debris from Iridium 33, an American commercial communications satellite, has been tracked extensively since its accidental collision with the defunct Russian satellite Cosmos 2251 in 2009. This event, occurring at high speed in low Earth orbit (LEO), generated thousands of pieces of space debris, significantly increasing the risk of further collisions. The Iridium 33 debris cloud has impacted space traffic management and orbital debris mitigation strategies, making it a subject of ongoing study in space situational awareness.

Loading next visibility...
Identifier
35650, 1993-036ANR
Orbit
LEO
Country
Flag of CISCIS
Related business
Manufacturer
Unknown
Mission
Spacecraft
Bus & Motor
Unknown
Mass
Unknown
Launch date (UTC)
1993-06-16 (33 years ago)
Launch vehicle
Unknown
Launch site
Plesetsk Missile And Space Complex (PKMTR)
Object type
Payload
Rocket body
Debris
Shape & HBR
Unknown shape, 0.1 m
Radar Cross Section
Small (<0.1 m²)

Expand to show TLE details & history
Last TLE update: 1 day ago

TLE from 1 day ago
0 COSMOS 2251 DEB
1 35650U 93036ANR 26123.39122184  .00016316  00000-0  17596-2 0  9991
2 35650  74.0422  97.2831 0013360 135.5061  18.5678 14.88334113897380
Epoch: 2026-05-03T09:23Z
TLE epoch observation values (Epoch: 2026-05-03T09:23:21.566Z)
Latitude
24.8467°
Longitude
-92.41937°
Altitude
597.047 km
Speed
7.568 km/s
True Right ascension
17h 58m 51s
True Declination
24° 42' 46"
Sunlit
Object was in full shadow at epoch
Visualization orbit readout
Latitude
Unknown
Longitude
Unknown
Altitude
Unknown
Speed
Unknown
Apparent Right ascension
Unknown
Apparent Declination
Unknown
Sunlit
N/A
Visualization observer readout
Local Sidereal Time
17:36:00
Azimuth
Unknown
Elevation
Unknown
Doppler factor
Unknown
Orbital elements
Apogee altitude
610.03 km
Perigee altitude
591.382 km
Semi-major axis
6,978.843 km
Eccentricity
0.00134
Inclination
74.0422°
RAAN
97.2831°
Arg. of periapsis
135.5061°
True anomaly
18.61663°
Mean anomaly
18.5678°
Eccentric anomaly
18.59221°
Mean motion
3.72279 °/min
Orbital period
96.7 mins
BSTAR
0.0017596
Loading maneuver chart data...
Computing Atmospheric mass density...

Documentation

Showing up to 5 results
|